CAPE
0 0 0 0 0 0 0 0 0 0 0 0 0 0 0 0 0 0 0 0 0 0 0 0 0 0 0 0 0 0 0 0 0 0 0 0 1 1 2 3 3 4 3
0 0 0 0 0 0 0 0 0 0 0 0 0 0 0 0 0 0 0 0 0 0 0 0 0 0 0 0 0 0 0 0 0 0 0 0 1 1 2 3 4 3 3
0 0 0 0 0 0 0 0 0 0 0 0 0 0 0 0 0 0 0 0 0 0 0 0 0 0 0 0 0 0 0 0 0 0 0 0 0 1 2 2 3 3 3
0 0 0 0 0 0 0 0 0 0 0 0 0 0 0 0 0 0 0 0 0 0 0 0 0 0 0 0 0 0 0 0 0 0 0 0 0 1 2 4 3 3 3
0 0 0 0 0 0 0 0 0 0 0 0 0 0 0 0 0 0 0 0 0 0 0 0 0 0 0 0 0 0 0 0 0 0 0 0 0 1 1 2 3 3 4
0 0 0 0 0 0 0 0 0 0 0 0 0 0 0 0 0 0 0 0 0 0 0 0 0 0 0 0 0 0 0 0 0 0 0 1 1 1 1 2 3 3 2
0 0 0 0 0 0 0 0 0 0 0 0 0 0 0 0 0 0 0 0 0 0 0 0 0 0 0 0 0 0 0 0 0 0 0 2 1 1 1 2 2 2 2
0 0 0 0 0 0 0 0 0 0 0 0 0 0 0 0 0 0 0 0 0 0 0 0 0 0 0 0 0 0 0 0 0 0 0 0 1 2 3 2 2 2 1
0 0 0 0 0 0 0 0 0 0 0 0 0 0 0 0 0 0 0 0 0 0 0 0 0 0 0 0 0 0 0 0 0 0 0 1 1 2 2 3 2 1 1
0 0 0 0 0 0 0 0 0 0 0 0 0 0 0 0 0 0 0 0 0 0 0 0 0 0 0 0 0 0 0 0 0 0 0 0 0 2 2 2 1 1 1
0 0 0 0 0 0 0 0 0 0 0 0 0 0 0 0 0 0 0 0 0 0 0 0 0 0 0 0 0 0 0 0 0 0 0 0 0 1 0 0 0 0 0
0 0 0 0 0 0 0 0 0 0 0 0 0 0 0 0 0 0 0 0 0 0 0 0 0 0 0 0 0 0 0 0 0 0 0 0 0 0 0 0 0 0 0
0 0 0 0 0 0 0 0 0 0 0 0 0 0 0 0 0 0 0 0 0 0 0 0 0 0 0 0 0 0 0 0 0 0 0 0 0 0 0 0 0 0 0
0 0 0 0 0 0 0 0 0 0 0 0 0 0 0 0 0 0 0 0 0 0 0 0 0 0 0 0 0 0 0 0 0 0 0 0 0 0 0 0 0 0 0
0 0 0 0 0 0 0 0 0 0 0 0 0 0 0 0 0 0 0 0 0 0 0 0 0 0 0 0 0 0 0 0 0 0 0 0 0 0 0 0 0 0 0
0 0 0 0 0 0 0 0 0 0 0 0 0 0 0 0 0 0 0 0 0 0 0 0 0 0 0 0 0 0 0 0 0 0 0 0 0 0 0 0 0 0 0
0 0 0 0 0 0 0 0 0 0 0 0 0 0 0 0 0 0 0 0 0 0 0 0 0 0 0 0 0 0 0 0 0 0 0 0 0 0 0 0 0 0 0
0 0 0 0 0 0 0 0 0 0 0 0 0 0 0 0 0 0 0 0 0 0 0 0 0 0 0 0 0 0 0 0 0 0 0 0 0 0 0 0 0 0 0
0 0 0 0 0 0 0 0 0 0 0 0 0 0 0 0 0 0 0 0 0 0 0 0 0 0 0 0 0 0 0 0 0 0 0 0 0 0 0 0 0 0 0
0 0 0 0 0 0 0 0 0 0 0 0 0 0 0 0 0 0 0 0 0 0 0 0 0 0 0 0 0 0 0 0 0 0 0 0 0 0 0 0 0 0 0
0 0 0 0 0 0 0 0 0 0 0 0 0 0 0 0 0 0 0 0 0 0 0 0 0 0 0 0 0 0 0 0 0 0 0 0 0 0 0 0 0 0 0
0 0 0 0 0 0 0 0 0 0 0 0 0 0 0 0 0 0 0 0 0 0 0 0 0 0 0 0 0 0 0 0 0 0 0 0 0 0 0 0 0 0 0
0 0 0 0 0 0 0 0 0 0 0 0 0 0 0 0 0 0 0 0 0 0 0 0 0 0 0 0 0 0 0 0 0 0 0 0 0 0 0 0 0 0 0
0 0 0 0 0 0 0 0 0 0 0 0 0 0 0 0 0 0 0 0 0 0 0 0 0 0 0 0 0 0 0 0 0 0 0 0 0 0 0 0 0 0 0
0 0 0 0 0 0 0 0 0 0 0 0 0 0 0 0 0 0 0 0 0 0 0 0 0 0 0 0 0 0 0 0 0 0 0 0 0 0 0 0 0 0 0
0 0 0 0 0 0 0 0 0 0 0 0 0 0 0 0 0 0 0 0 0 0 0 0 0 0 0 0 0 0 0 0 0 0 0 0 0 0 0 0 0 0 0
CIN
0 0 0 0 0 0 0 0 0 0 0 0 0 0 0 0 0 0 0 0 0 0 0 0 0 0 0 0 0 0 0 0 0 0 0 -1 -1 0 0 0 0 0 -1
0 0 0 0 0 0 0 0 0 0 0 0 0 0 0 0 0 0 0 0 0 0 0 0 0 0 0 0 0 0 0 0 0 0 0 -1 -1 0 0 0 -1 -1 -1
0 0 0 0 0 0 0 0 0 0 0 0 0 0 0 0 0 0 0 0 0 0 0 0 0 0 0 0 0 0 0 0 0 0 0 0 -1 0 0 0 -1 -1 -1
0 0 0 0 0 0 0 0 0 0 0 0 0 0 0 0 0 0 0 0 0 0 0 0 0 0 0 0 0 0 0 0 0 0 0 0 0 -1 0 0 -1 -1 0
0 0 0 0 0 0 0 0 0 0 0 0 0 0 0 0 0 0 0 0 0 0 0 0 0 0 0 0 0 0 0 0 0 0 0 0 0 -1 0 0 -1 -1 0
0 0 0 0 0 0 0 0 0 0 0 0 0 0 0 0 0 0 0 0 0 0 0 0 0 0 0 0 0 0 0 0 0 0 0 0 0 0 -1 0 -1 -1 -1
0 0 0 0 0 0 0 0 0 0 0 0 0 0 0 0 0 0 0 0 0 0 0 0 0 0 0 0 0 0 0 0 0 0 0 -1 0 0 0 0 0 -1 0
0 0 0 0 0 0 0 0 0 0 0 0 0 0 0 0 0 0 0 0 0 0 0 0 0 0 0 0 0 0 0 0 0 0 0 0 -1 -1 0 -1 0 0 0
0 0 0 0 0 0 0 0 0 0 0 0 0 0 0 0 0 0 0 0 0 0 0 0 0 0 0 0 0 0 0 0 0 0 0 -1 -1 -1 0 -1 -1 -1 -1
0 0 0 0 0 0 0 0 0 0 0 0 0 0 0 0 0 0 0 0 0 0 0 0 0 0 0 0 0 0 0 0 0 0 0 0 -1 -1 0 0 0 0 0
0 0 0 0 0 0 0 0 0 0 0 0 0 0 0 0 0 0 0 0 0 0 0 0 0 0 0 0 0 0 0 0 0 0 0 0 -1 -1 -1 0 -1 0 0
0 0 0 0 0 0 0 0 0 0 0 0 0 0 0 0 0 0 0 0 0 0 0 0 0 0 0 0 0 0 0 0 0 0 0 0 0 0 0 0 0 0 0
0 0 0 0 0 0 0 0 0 0 0 0 0 0 0 0 0 0 0 0 0 0 0 0 0 0 0 0 0 0 0 0 0 0 0 0 0 0 0 0 0 0 0
0 0 0 0 0 0 0 0 0 0 0 0 0 0 0 0 0 0 0 0 0 0 0 0 0 0 0 0 0 0 0 0 0 0 0 0 0 0 0 0 0 0 0
0 0 0 0 0 0 0 0 0 0 0 0 0 0 0 0 0 0 0 0 0 0 0 0 0 0 0 0 0 0 0 0 0 0 0 0 0 0 0 0 0 0 0
0 0 0 0 0 0 0 0 0 0 0 0 0 0 0 0 0 0 0 0 0 0 0 0 0 0 0 0 0 0 0 0 0 0 0 0 0 0 0 0 0 0 0
0 0 0 0 0 0 0 0 0 0 0 0 0 0 0 0 0 0 0 0 0 0 0 0 0 0 0 0 0 0 0 0 0 0 0 0 0 0 0 0 0 0 0
0 0 0 0 0 0 0 0 0 0 0 0 0 0 0 0 0 0 0 0 0 0 0 0 0 0 0 0 0 0 0 0 0 0 0 0 0 0 0 0 0 0 0
0 0 0 0 0 0 0 0 0 0 0 0 0 0 0 0 0 0 0 0 0 0 0 0 0 0 0 0 0 0 0 0 0 0 0 0 0 0 0 0 0 0 0
0 0 0 0 0 0 0 0 0 0 0 0 0 0 0 0 0 0 0 0 0 0 0 0 0 0 0 0 0 0 0 0 0 0 0 0 0 0 0 0 0 0 0
0 0 0 0 0 0 0 0 0 0 0 0 0 0 0 0 0 0 0 0 0 0 0 0 0 0 0 0 0 0 0 0 0 0 0 0 0 0 0 0 0 0 0
0 0 0 0 0 0 0 0 0 0 0 0 0 0 0 0 0 0 0 0 0 0 0 0 0 0 0 0 0 0 0 0 0 0 0 0 0 0 0 0 0 0 0
0 0 0 0 0 0 0 0 0 0 0 0 0 0 0 0 0 0 0 0 0 0 0 0 0 0 0 0 0 0 0 0 0 0 0 0 0 0 0 0 0 0 0
0 0 0 0 0 0 0 0 0 0 0 0 0 0 0 0 0 0 0 0 0 0 0 0 0 0 0 0 0 0 0 0 0 0 0 0 0 0 0 0 0 0 0
0 0 0 0 0 0 0 0 0 0 0 0 0 0 0 0 0 0 0 0 0 0 0 0 0 0 0 0 0 0 0 0 0 0 0 0 0 0 0 0 0 0 0
0 0 0 0 0 0 0 0 0 0 0 0 0 0 0 0 0 0 0 0 0 0 0 0 0 0 0 0 0 0 0 0 0 0 0 0 0 0 0 0 0 0 0
Wind_Speed
14 13 12 11 10 8 6 6 5 4 5 6 6 8 9 11 12 13 14 16 17 18 19 19 20 21 22 22 23 23 24 25 25 26 26 27 27 28 28 28 28 29 29
15 14 13 12 11 9 7 6 6 5 4 4 5 6 8 9 10 11 13 14 16 17 18 19 19 20 21 21 22 22 23 23 24 25 25 26 27 27 28 28 29 29 29
17 16 15 14 12 10 8 6 5 4 3 2 3 5 7 8 9 10 12 14 15 16 17 18 19 20 20 21 21 21 22 22 23 23 25 25 26 27 27 27 27 28 28
19 17 17 14 13 12 10 8 6 4 3 1 2 4 5 6 8 9 11 13 14 15 16 18 18 19 20 20 20 21 21 22 23 23 24 25 26 27 27 28 27 27 28
20 19 18 17 14 13 12 9 7 5 3 1 1 4 6 6 8 9 10 12 13 14 16 17 18 19 20 20 20 21 21 22 23 23 24 24 25 26 27 27 28 28 28
21 21 20 19 16 15 13 11 8 6 4 2 3 5 8 9 10 9 10 11 12 13 14 16 17 19 21 21 21 21 22 24 24 25 25 26 26 26 27 27 28 29 30
24 22 22 21 18 17 15 12 10 8 6 5 5 9 11 13 12 11 10 10 10 11 12 14 16 18 20 21 21 22 24 25 27 27 26 27 27 27 27 28 29 31 31
26 25 24 23 21 19 17 15 13 11 12 8 11 10 12 15 15 12 12 11 9 10 11 12 14 16 18 19 20 22 25 28 29 28 29 29 29 29 30 31 32 33 34
26 26 26 26 23 21 20 18 15 15 12 12 13 13 14 16 14 15 13 11 9 10 11 11 13 15 16 17 18 21 24 29 30 30 29 30 30 31 32 33 34 34 34
27 26 26 26 25 23 22 21 18 18 15 12 15 16 14 14 15 17 16 14 11 11 10 11 12 15 14 16 17 20 25 29 30 30 31 31 31 31 33 34 34 34 34
28 27 28 27 29 24 24 22 20 20 19 17 17 16 17 17 17 17 18 16 16 13 12 11 13 14 13 14 15 20 26 29 31 32 32 31 31 32 34 34 34 35 36
28 27 27 31 28 25 24 24 24 22 19 20 18 18 18 19 19 19 19 19 18 15 15 14 14 14 14 14 15 21 27 31 31 31 32 31 32 34 34 34 35 36 37
28 27 27 34 30 27 25 24 26 24 23 23 21 21 21 20 18 18 19 20 20 18 19 17 16 15 14 14 16 23 28 32 32 32 32 33 34 35 36 36 37 38 39
26 26 25 34 31 29 28 26 26 28 27 26 25 22 22 21 19 19 19 19 22 21 21 20 17 16 15 14 18 25 30 32 33 32 32 33 34 35 36 37 39 39 41
27 24 27 33 32 29 30 30 30 29 28 27 29 25 23 22 20 20 19 19 21 24 24 21 19 17 17 17 20 28 31 34 33 34 34 35 35 37 37 38 39 41 43
25 24 26 30 31 32 30 29 31 29 29 29 28 28 23 23 23 21 20 20 21 22 25 21 20 20 20 21 23 29 32 33 34 34 35 35 36 37 37 38 40 42 44
24 21 23 27 31 33 34 35 34 31 30 29 29 29 24 23 23 22 22 21 21 21 25 24 22 23 24 25 27 30 32 34 34 35 36 37 37 37 37 39 42 44 44
24 23 25 26 28 31 33 35 34 33 32 31 30 29 27 24 25 22 21 22 22 21 24 25 24 25 25 26 30 34 35 33 34 36 36 36 35 35 39 42 44 44 44
22 24 24 25 27 30 33 34 35 34 33 32 32 31 28 26 26 24 23 23 23 22 23 25 26 25 27 28 32 34 35 36 35 35 36 34 35 38 41 44 44 44 45
22 21 21 22 23 25 29 31 32 33 34 34 32 33 31 28 26 24 24 24 22 24 24 25 28 29 29 29 33 37 40 37 41 37 33 34 38 40 43 43 43 43 45
23 23 22 22 23 26 28 30 30 33 34 35 33 31 32 30 28 26 26 24 23 24 25 26 28 29 31 33 36 35 40 43 43 32 36 41 41 43 41 41 42 42 42
25 25 25 24 26 26 28 28 29 30 31 33 35 32 32 30 29 27 25 24 22 23 25 26 28 30 32 33 34 37 40 43 43 33 45 45 43 43 41 41 42 42 42
24 25 25 26 27 27 25 26 26 29 31 33 33 33 33 31 28 28 26 25 23 23 25 24 27 29 31 31 33 37 38 40 40 43 46 47 43 44 43 42 41 40 41
23 25 27 30 28 27 25 25 25 27 30 33 34 32 32 31 28 27 26 25 25 24 23 24 26 27 28 30 31 34 37 38 40 40 39 46 45 48 47 42 37 38 40
22 23 24 24 28 29 26 26 25 27 29 30 30 30 30 29 28 26 26 26 26 25 22 22 24 25 26 29 30 33 37 41 44 42 39 42 47 56 47 41 36 39 46
26 25 24 25 26 27 27 27 28 29 30 30 29 28 28 29 25 24 26 26 26 24 23 24 24 25 26 28 29 30 32 39 41 42 36 49 47 50 52 38 46 47 47
Wind_Direction
203 202 199 199 201 196 188 162 143 125 102 86 66 61 54 47 44 37 34 38 37 37 36 39 38 38 37 41 40 39 36 29 26 26 23 18 12 7 1 358 354 350 346
204 202 199 198 197 200 195 174 152 132 111 90 67 50 44 40 37 32 27 31 39 34 31 30 31 30 30 34 35 34 32 32 27 26 27 24 20 16 12 7 3 360 356
206 203 199 198 200 200 191 188 176 146 127 79 50 36 37 28 23 24 20 24 31 29 29 23 24 22 24 28 30 28 27 26 28 26 22 20 17 13 11 10 9 6 4
209 206 204 198 202 200 199 199 186 176 157 118 57 16 19 4 0 9 10 19 28 25 22 21 18 17 15 19 23 22 21 19 16 16 17 15 11 8 5 4 5 4 2
209 210 208 208 201 202 205 204 211 204 194 238 338 340 337 342 345 353 4 14 18 27 19 16 11 10 8 10 15 13 13 12 11 11 11 11 9 6 4 2 1 359 358
210 211 211 210 209 207 207 213 209 224 224 230 294 316 311 314 320 337 349 355 13 18 22 18 10 2 358 0 6 7 4 1 3 2 2 3 4 3 1 360 358 356 353
213 211 213 213 215 212 213 210 222 214 236 244 284 298 302 303 307 317 332 344 1 11 16 16 13 5 359 356 358 357 355 356 353 356 358 359 359 359 358 356 355 352 349
216 215 214 217 217 218 216 216 221 230 254 238 277 290 297 299 301 311 320 332 348 356 6 13 10 8 4 2 359 354 350 347 348 350 351 352 352 352 351 350 348 346 345
218 218 219 220 221 223 223 223 224 239 243 247 273 289 296 297 306 307 313 322 335 341 352 4 1 2 3 4 0 355 350 342 344 346 349 348 349 348 347 346 346 345 343
220 220 221 223 224 227 227 229 233 245 251 243 269 281 298 306 306 310 310 314 321 330 340 351 351 353 0 359 359 355 348 343 343 344 344 345 346 347 345 344 344 343 342
224 224 224 226 228 230 232 232 235 242 253 254 264 275 286 296 303 308 312 316 313 320 328 337 341 345 353 355 357 352 345 343 341 341 342 345 345 344 343 343 343 341 340
226 224 227 228 231 232 232 235 239 242 250 260 262 274 282 290 294 300 306 312 315 321 323 329 332 337 343 348 351 346 341 340 341 341 342 343 343 341 342 342 341 339 338
227 226 227 231 235 236 237 239 241 245 249 257 262 269 279 287 296 300 304 308 311 318 321 325 327 330 336 342 343 340 339 337 338 339 340 340 340 339 339 339 338 337 336
226 229 227 234 237 239 239 241 245 247 251 256 263 270 276 283 290 297 300 304 307 311 316 320 327 328 332 335 335 334 334 335 335 337 337 338 337 336 337 337 335 335 334
232 229 232 236 240 241 243 244 246 248 251 255 260 268 275 280 286 291 296 301 303 305 310 318 322 327 328 329 330 330 331 332 334 334 335 335 335 335 335 335 334 333 332
233 234 236 239 242 244 244 245 249 251 251 256 259 264 272 277 281 287 291 296 301 304 306 315 319 324 326 326 327 328 329 331 332 333 333 333 333 333 334 334 333 332 331
237 234 238 242 243 245 247 248 250 251 253 256 259 262 266 272 276 281 287 292 296 302 303 310 316 320 321 322 324 327 328 329 331 332 332 332 332 333 334 333 332 331 330
238 239 242 246 249 249 249 250 251 253 253 254 257 260 264 268 272 277 282 286 291 298 301 304 312 315 318 321 323 325 327 329 330 331 332 332 333 334 333 332 331 330 330
241 243 245 248 250 253 252 254 254 254 254 255 256 258 261 264 268 272 277 282 289 295 298 303 307 313 317 321 323 326 327 328 331 331 331 333 334 333 332 331 331 330 330
243 240 247 253 254 254 255 256 256 256 256 258 258 259 261 260 264 267 273 277 285 288 295 300 303 308 313 319 322 324 325 330 328 331 331 332 332 331 331 331 331 331 330
244 243 247 255 258 256 257 257 258 259 260 260 260 260 261 261 263 265 270 274 279 285 292 295 300 305 310 315 318 324 324 325 328 332 332 331 332 331 332 333 332 332 332
248 249 256 258 260 263 260 259 261 261 262 261 261 261 261 260 262 264 267 271 273 279 286 292 298 303 308 313 319 322 324 326 327 336 330 329 331 331 332 334 333 332 332
251 249 255 257 262 264 261 260 259 264 264 264 264 263 262 263 261 264 266 272 274 280 286 290 296 301 307 314 318 320 323 325 326 328 328 328 333 331 333 334 333 334 333
253 255 258 258 262 265 263 261 261 266 265 265 265 264 263 263 261 262 264 270 275 279 285 292 296 303 308 313 317 320 322 324 326 330 333 327 334 331 333 334 335 338 337
258 258 259 261 257 262 262 262 259 263 265 266 267 267 267 266 263 259 261 267 273 279 286 292 298 305 309 315 319 321 322 324 325 331 334 333 334 331 333 336 341 341 337
265 263 264 262 264 265 261 261 260 264 266 270 271 270 268 269 265 257 261 264 269 274 281 289 297 304 310 315 320 322 324 324 327 329 336 332 335 338 333 338 337 339 339